This demonstration page uses our WeatherBlox Daily Observations layout. Learn more.

Left ArrowRight Arrow

Hourly Observations for June 3, 2021

Temp ( °F °C ) Dew Point ( °F °C ) Humidity (%) Winds ( mph kmh ) Pressure ( in mb ) Visibility ( mi km ) Precip ( " mm )
12:04 am 00:04 Cloudy 66 18.9 64 17.8 93 93 N N/A 29.95 1014 7 11 N/A
12:18 am 00:18 Cloudy 66 18.9 64 17.8 93 93 VRB 3 6 29.95 1014 7 11 N/A
12:53 am 00:53 Cloudy 66 18.9 64 17.8 93 93 N N/A 29.94 1014 7 11 N/A
1:29 am 01:29 Cloudy with Light Rain 65 18.3 64 17.8 97 97 N N/A 29.93 1014 5 8 0.00 0.00
1:44 am 01:44 Mostly Cloudy with Mist and Fog 65 18.3 64 17.8 97 97 N N/A 29.93 1014 5 8 0.00 0.00
1:53 am 01:53 Mostly Cloudy with Mist and Fog 65 18.3 64 17.8 97 97 N N/A 29.93 1014 5 8 0.00 0.00
2:10 am 02:10 Cloudy with Light Rain 65 18.3 64 17.8 97 97 N N/A 29.92 1013 6 10 0.01 0.25
2:38 am 02:38 Cloudy with Mist and Fog 65 18.3 64 17.8 97 97 N N/A 29.92 1013 5 8 0.01 0.25
2:53 am 02:53 Cloudy with Mist and Fog 65 18.3 64 17.8 97 97 E 3 6 29.92 1013 4 6 0.01 0.25
3:00 am 03:00 Cloudy with Mist and Fog 65 18.3 64 17.8 97 97 N N/A 29.91 1013 4 6 N/A
3:53 am 03:53 Cloudy with Mist and Fog 65 18.3 64 17.8 97 97 N N/A 29.91 1013 4 6 N/A
4:53 am 04:53 Cloudy with Mist and Fog 65 18.3 64 17.8 97 97 N N/A 29.90 1013 6 10 N/A
5:53 am 05:53 Cloudy with Mist and Fog 65 18.3 64 17.8 97 97 N N/A 29.89 1012 6 10 N/A
6:29 am 06:29 Cloudy with Mist and Fog 65 18.3 64 17.8 97 97 N N/A 29.90 1013 6 10 N/A
6:45 am 06:45 Cloudy 65 18.3 64 17.8 97 97 N N/A 29.90 1013 7 11 N/A
6:53 am 06:53 Cloudy 65 18.3 64 17.8 97 97 N N/A 29.91 1013 7 11 N/A
7:53 am 07:53 Cloudy 66 18.9 65 18.3 96 96 N N/A 29.92 1013 7 11 N/A
8:24 am 08:24 Cloudy 66 18.9 65 18.3 96 96 N N/A 29.92 1013 7 11 N/A
8:53 am 08:53 Cloudy 67 19.4 65 18.3 93 93 N N/A 29.93 1013 7 11 N/A
9:53 am 09:53 Cloudy 67 19.4 65 18.3 93 93 SSW 5 7 29.93 1014 7 11 N/A
10:00 am 10:00 Cloudy 67 19.4 65 18.3 93 93 VRB 5 7 29.93 1013 7 11 N/A
10:53 am 10:53 Cloudy with Light Rain 69 20.6 65 18.3 87 87 SSW 6 9 29.93 1014 9 14 0.00 0.00
11:03 am 11:03 Cloudy with Light Rain 68 20 65 18.3 90 90 VRB 3 6 29.93 1013 9 14 0.00 0.00
11:53 am 11:53 Cloudy with Light Rain 67 19.4 65 18.3 93 93 N N/A 29.93 1013 3 5 0.06 1.52
12:15 pm 12:15 Cloudy with Light Rain 68 20 66 18.9 93 93 N N/A 29.93 1013 7 11 0.00 0.00
12:33 pm 12:33 Cloudy 68 20 66 18.9 93 93 N N/A 29.93 1013 9 14 0.00 0.00
12:53 pm 12:53 Cloudy with Light Rain 69 20.6 66 18.9 90 90 VRB 3 6 29.92 1013 10 16 0.00 0.00
1:13 pm 13:13 Cloudy with Light Rain 72 22.2 67 19.4 84 84 N N/A 29.91 1013 10 16 0.00 0.00
1:32 pm 13:32 Cloudy with Light Rain 72 22.2 66 18.9 82 82 VRB 6 9 29.91 1013 10 16 0.00 0.00
1:53 pm 13:53 Cloudy 72 22.2 66 18.9 82 82 S 3 6 29.91 1013 10 16 0.00 0.00
2:20 pm 14:20 Mostly Cloudy 72 22.2 65 18.3 79 79 VRB 6 9 29.90 1013 10 16 N/A
2:53 pm 14:53 Mostly Cloudy 71 21.7 65 18.3 81 81 SSW 5 7 29.91 1013 10 16 0.00 0.00
3:39 pm 15:39 Cloudy 72 22.2 65 18.3 79 79 W 5 7 29.89 1012 10 16 0.00 0.00
3:53 pm 15:53 Mostly Cloudy 72 22.2 65 18.3 79 79 WNW 7 11 29.90 1012 10 16 0.00 0.00
4:53 pm 16:53 Sunny 72 22.2 60 15.6 66 66 N N/A 29.89 1012 10 16 0.00 0.00
5:39 pm 17:39 Cloudy with Nearby Thunderstorms 68 20 60 15.6 76 76 N N/A 29.89 1012 10 16 N/A
5:53 pm 17:53 Cloudy with Nearby Thunderstorms 66 18.9 62 16.7 87 87 W 5 7 29.90 1013 9 14 0.01 0.25
6:17 pm 18:17 Cloudy with Thunderstorms 65 18.3 63 17.2 93 93 VRB 3 6 29.92 1013 6 10 0.02 0.51
6:32 pm 18:32 Cloudy with Light Rain 64 17.8 63 17.2 96 96 N N/A 29.91 1013 6 10 0.03 0.76
6:53 pm 18:53 Cloudy with Light Rain 63 17.2 61 16.1 93 93 N N/A 29.91 1013 10 16 0.04 1.02
7:53 pm 19:53 Partly Cloudy with Light Rain 64 17.8 62 16.7 93 93 N N/A 29.89 1012 10 16 0.05 1.27
8:53 pm 20:53 Sunny 63 17.2 62 16.7 97 97 N N/A 29.92 1013 10 16 0.00 0.00
9:53 pm 21:53 Mostly Cloudy 62 16.7 61 16.1 96 96 N 3 6 29.93 1014 9 14 N/A
10:53 pm 22:53 Mostly Cloudy 62 16.7 61 16.1 96 96 N N/A 29.97 1015 8 13 N/A
11:40 pm 23:40 Partly Cloudy with Mist and Fog 62 16.7 61 16.1 96 96 N N/A 29.98 1015 3 4 N/A
11:48 pm 23:48 Mostly Clear with Mist and Fog 61 16 61 16 100 100 N N/A 29.98 1015 4 6 N/A
11:53 pm 23:53 Mostly Clear with Mist and Fog 61 16.1 61 16.1 100 100 N N/A 29.98 1015 2 3 N/A
11:55 pm 23:55 Mostly Clear with Mist and Fog 61 16.1 60 15.6 97 97 N N/A 29.98 1015 2 2 N/A

Powered by AerisWeather